User: anonymous   Login
Location: Vancouver
(49.2500°N, 123.1330°W)
Time: 21:23:45
(UTC-07:00)
Language:

Cosmos 1939 Rocket - Orbit

View from above orbital plane
View from above orbital plane
View from above satellite
View from above satellite

Ground track
Ground track

The orbit data is extracted from the following two-line orbital elements,

1 19046U 88032B   15185.16974673  .00001469  00000-0  11742-3 0  9992
2 19046 097.6192 237.4025 0039649 242.8160 116.9021 15.01202958465472
Epoch (UTC): 04 July 2015 04:04:26
Eccentricity: 0.0039649
inclination: 97.6192°
perigee height: 535 km
apogee height: 591 km
right ascension of ascending node: 237.4025°
argument of perigee: 242.8160°
revolutions per day: 15.01202958
mean anomaly at epoch: 116.9021°
orbit number at epoch: 46547

The dashed part of the orbit path shows where the satellite is in the earth's shadow,  

DLR